Other Surface Observations
Issued by NWS

Home | Current Version | Previous Version | Text Only | Print | Product List | Glossary On
Versions: 1 2 3 4 5 6 7 8 9 10 11 12 13 14 15 16 17 18 19 20 21 22 23 24 25 26 27 28 29 30 31 32 33 34 35 36 37 38 39 40 41 42 43 44 45 46 47 48 49 50
000
SXUS52 KTAE 251805
OSOTAE
OSOTAE
North Florida/South Alabama/Southwest Georgia Weather Roundup
National Weather Service Tallahassee Florida
200 PM EDT MON MAY 25 2015

Note: "fair" indicates few or no clouds below 12,000 feet with no
significant weather and/or obstructions to visibility.

!FLZ017-115-028-034-025-251900
...North Florida...

CITY           SKY/WX    TMP DP  RH WIND       PRES   REMARKS
TALLAHASSEE    PTSUNNY   89  70  53 S13G28    30.18S HX  94
APALACHICOLA   MOSUNNY   89  74  60 SE14      30.18S HX  98
PERRY          MOSUNNY   89  63  40 E8        30.18F HX  90
CROSS CITY       N/A     91  64  40 VRB5      30.18F HX  92
JACKSONVILLE   PTSUNNY   86  71  60 SE12G21   30.21F HX  91
$$

!FLZ112-006-005-002-011-251900
...Florida Panhandle...

CITY           SKY/WX    TMP DP  RH WIND       PRES   REMARKS
MARIANNA       PTSUNNY   86  74  67 E12       30.15F HX  94
BONIFAY        MOCLDY    87  72  60 E6        30.14F HX  93
PANAMA CITY NW FAIR      87  72  60 SE16      30.15F HX  93
TYNDALL AFB    MOSUNNY   87  75  67 S18G28    30.15F HX  96
TYND DRONE APT FAIR      87  75  66 S18G28    30.14F HX  97
DE FUNIAK SPR  FAIR      84  73  68 MISG      30.15F HX  90
EGLIN AFB      CLOUDY    85  74  70 SE17G23   30.14F HX  92
DESTIN         CLOUDY    86  76  71 SE16G22   30.14F HX  96
HURLBURT       CLOUDY    85  75  72 SE16G24   30.13F HX  93
CRESTVIEW      CLOUDY    85  73  67 S15G21    30.16S HX  91
PENSACOLA      CLOUDY    81  76  84 S14       30.14S
$$

!ALZ063-066-251900
...South Alabama...

CITY           SKY/WX    TMP DP  RH WIND       PRES   REMARKS
DOTHAN         PTSUNNY   87  70  56 E9        30.19F HX  92
OZARK CAIRNS   PTSUNNY   86  72  62 SE6       30.15F HX  92
FT RUCKER HELI PTSUNNY   85  70  60 S6        30.14F
RUCKER HELI 3  FAIR      83  70  64 E6        30.17F THUNDER
RUCKER HELI 2  PTSUNNY   84  70  62 SE5       30.15F
FLORALA APT    CLOUDY    81  73  78 E8        30.16F
ANDALUSIA      NOT AVBL
TROY           PTSUNNY   85  70  60 SE8       30.17F
EUFALA         PTSUNNY   85  71  63 CALM      30.18F HX  90
MOBILE         CLOUDY    79  74  84 SE8       30.14F
$$

!GAZ120>161-251900
...Southwest and South Central Georgia...

CITY           SKY/WX    TMP DP  RH WIND       PRES   REMARKS
THOMASVILLE    PTSUNNY   88  70  55 S9        30.20F HX  92
BAINBRIDGE     PTSUNNY   86  73  66 SE8       30.18F HX  93
MOODY AFB      PTSUNNY   89  65  45 S8        30.18F HX  91
VALDOSTA       SUNNY     90  66  45 S9        30.18F HX  92
MOULTRIE       MOSUNNY   88  64  45 SE5       30.20F
BLAKELY        CLOUDY    86  72  62 SE3       30.19F HX  92
ALBANY         PTSUNNY   87  66  49 SE5       30.21F
TIFTON         FAIR      88  62  42 SE8       30.19F
FITZGERALD     FAIR      88  65  46 E7        30.22F HX  90
CORDELE        CLOUDY    87  69  53 SE7       30.21F HX  91
AMERICUS       CLOUDY    82  68  61 E3        30.23F
HOMERVILLE     FAIR      91  70  49 SE9       30.20F HX  97
$$

!GMZ750-755-770-775-251900
...Coastal and Buoy Obs...

STATION/POSITION TIME  TEMP    WIND        PRES    VSBY  WAVE
                       AIR SEA DIR/SP/G                  HT/PER
                 (UTC) (F)     (DEG/KT/KT) (MB)    (MI)  (FT/S)
KEATON BEACH     1800   80     190/ 13/ 14 1022.3F
CEDAR KEY        1700   81     110/  4/  5 1023.1F
C TOWER          1800   79     130/ 13/ 14 1021.7F
APALACHICOLA BUO 1750   80 80  130/ 12/ 14 1021.6F         4/ 6
PANAMA CITY BUOY 1650   81 80  140/ 14/ 16 1021.0          5/ 6
MOBILE BUOY      1750   80 79  150/  8/ 12 1019.7S         5/ 7
ORANGE BCH AL BU 1750   80 80  140/ 12/ 14 1019.2F         4/ 6
$$



USA.gov is the U.S. government's official web portal to all federal, state and local government web resources and services.